EWG74D EDDH-LOWI

Flight info

Callsign EWG74D
Flight time 1h 9m
Altitude 37000
Route AMLUH2C AMLUH M852 DENIX DCT ZUCKA DCT GALMA M736 TULSI TULSI3A
Aircraft A320/M-SDE3FGHIRWY/LB1

Departure

Time 2026-04-20 17:59
Airport Hamburg Helmut Schmidt Airport (EDDH)

Arrival

Time 2026-04-20 19:08
Airport Innsbruck Airport (LOWI)
Time Latitude Longitude Altitude Speed Heading
2026-04-20 17:37 53.62808 10.00245 51 ft 0 kts 62°
2026-04-20 17:49 53.62803 10.00231 49 ft 2 kts 62°
2026-04-20 17:50 53.62795 10.00206 48 ft 2 kts 62°
2026-04-20 17:50 53.62788 10.00180 47 ft 2 kts 62°
2026-04-20 17:50 53.62778 10.00157 48 ft 2 kts 12°
2026-04-20 17:50 53.62762 10.00155 47 ft 2 kts 356°
2026-04-20 17:51 53.62750 10.00158 47 ft 0 kts 329°
2026-04-20 17:53 53.62779 10.00129 50 ft 10 kts 329°
2026-04-20 17:53 53.62830 10.00051 48 ft 7 kts 286°
2026-04-20 17:54 53.62816 9.99981 49 ft 6 kts 229°
2026-04-20 17:54 53.62812 9.99975 49 ft 0 kts 224°
2026-04-20 17:54 53.62807 9.99967 50 ft 3 kts 223°
2026-04-20 17:55 53.62770 9.99931 49 ft 11 kts 207°
2026-04-20 17:55 53.62674 9.99842 47 ft 20 kts 215°
2026-04-20 17:55 53.62625 9.99644 50 ft 18 kts 259°
2026-04-20 17:55 53.62603 9.99445 49 ft 17 kts 259°
2026-04-20 17:56 53.62577 9.99218 47 ft 26 kts 259°
2026-04-20 17:56 53.62544 9.98921 51 ft 25 kts 259°
2026-04-20 17:56 53.62512 9.98648 51 ft 23 kts 259°
2026-04-20 17:56 53.62482 9.98381 51 ft 25 kts 259°
2026-04-20 17:57 53.62427 9.98092 48 ft 26 kts 237°
2026-04-20 17:57 53.62319 9.97864 50 ft 24 kts 231°
2026-04-20 17:57 53.62217 9.97657 50 ft 22 kts 229°
2026-04-20 17:57 53.62187 9.97462 50 ft 17 kts 295°
2026-04-20 17:58 53.62291 9.97351 48 ft 19 kts 355°
2026-04-20 17:58 53.62382 9.97498 47 ft 21 kts 50°
2026-04-20 17:58 53.62566 9.97870 48 ft 75 kts 50°
2026-04-20 17:58 53.63045 9.98834 50 ft 136 kts 49°
2026-04-20 17:59 53.63714 10.00218 405 ft 160 kts 50°
2026-04-20 17:59 53.64432 10.01753 993 ft 176 kts 52°
2026-04-20 17:59 53.65222 10.03447 1714 ft 187 kts 52°
2026-04-20 17:59 53.66045 10.05141 2431 ft 186 kts 53°
2026-04-20 18:00 53.66897 10.06868 3178 ft 198 kts 53°
2026-04-20 18:00 53.67808 10.08710 3920 ft 211 kts 53°
2026-04-20 18:00 53.68772 10.10655 4658 ft 226 kts 52°
2026-04-20 18:00 53.69770 10.12916 4952 ft 248 kts 65°
2026-04-20 18:01 53.70129 10.15864 5004 ft 268 kts 93°
2026-04-20 18:01 53.69492 10.18868 5006 ft 280 kts 123°
2026-04-20 18:01 53.67981 10.20914 5009 ft 291 kts 154°
2026-04-20 18:01 53.65998 10.21907 5560 ft 299 kts 161°
2026-04-20 18:02 53.63979 10.22807 6293 ft 300 kts 161°
2026-04-20 18:02 53.61948 10.23710 7011 ft 302 kts 161°
2026-04-20 18:02 53.59895 10.24625 7727 ft 305 kts 161°
2026-04-20 18:02 53.57859 10.25535 8440 ft 308 kts 161°
2026-04-20 18:03 53.55776 10.26469 9171 ft 311 kts 161°
2026-04-20 18:03 53.53646 10.27424 10015 ft 318 kts 161°
2026-04-20 18:03 53.51500 10.28387 10716 ft 321 kts 161°
2026-04-20 18:03 53.49329 10.29360 11432 ft 324 kts 161°
2026-04-20 18:04 53.47165 10.30328 12133 ft 327 kts 161°
2026-04-20 18:04 53.44952 10.31322 12868 ft 331 kts 161°
2026-04-20 18:04 53.42703 10.32334 13634 ft 335 kts 161°
2026-04-20 18:04 53.40438 10.33356 14365 ft 339 kts 161°
2026-04-20 18:05 53.35847 10.35430 15759 ft 347 kts 161°
2026-04-20 18:05 53.33509 10.36483 16487 ft 350 kts 162°
2026-04-20 18:05 53.31140 10.37549 17236 ft 353 kts 162°
2026-04-20 18:06 53.28746 10.38623 18011 ft 355 kts 162°
2026-04-20 18:06 53.26343 10.39698 18752 ft 357 kts 162°
2026-04-20 18:06 53.23936 10.40773 19446 ft 358 kts 162°
2026-04-20 18:06 53.21572 10.41829 20130 ft 358 kts 162°
2026-04-20 18:07 53.19149 10.42907 20853 ft 359 kts 162°
2026-04-20 18:07 53.16724 10.43980 21597 ft 358 kts 162°
2026-04-20 18:07 53.14341 10.45035 22346 ft 357 kts 162°
2026-04-20 18:07 53.11933 10.46062 23117 ft 356 kts 164°
2026-04-20 18:08 53.09495 10.46935 23758 ft 360 kts 166°
2026-04-20 18:08 53.06975 10.47727 23900 ft 376 kts 167°
2026-04-20 18:08 53.04341 10.48500 23944 ft 393 kts 167°
2026-04-20 18:08 53.01620 10.49285 23937 ft 410 kts 167°
2026-04-20 18:09 52.98755 10.50123 23941 ft 426 kts 167°
2026-04-20 18:09 52.95790 10.51011 23934 ft 440 kts 167°
2026-04-20 18:09 52.92717 10.51952 23939 ft 453 kts 167°
2026-04-20 18:09 52.89579 10.52925 23967 ft 463 kts 167°
2026-04-20 18:10 52.86400 10.53918 24250 ft 465 kts 167°
2026-04-20 18:10 52.83244 10.54902 24580 ft 467 kts 167°
2026-04-20 18:10 52.80037 10.55896 24854 ft 470 kts 167°
2026-04-20 18:10 52.76767 10.56901 24923 ft 478 kts 167°
2026-04-20 18:11 52.73509 10.57899 24922 ft 483 kts 167°
2026-04-20 18:11 52.70189 10.58911 24925 ft 484 kts 167°
2026-04-20 18:11 52.66861 10.59854 24923 ft 485 kts 171°
2026-04-20 18:11 52.63541 10.60430 24931 ft 485 kts 172°
2026-04-20 18:12 52.60179 10.60962 24933 ft 485 kts 172°
2026-04-20 18:12 52.56820 10.61489 24941 ft 485 kts 172°
2026-04-20 18:12 52.53439 10.62020 25217 ft 486 kts 172°
2026-04-20 18:12 52.50068 10.62572 25679 ft 484 kts 172°
2026-04-20 18:13 52.46720 10.63151 26136 ft 482 kts 172°
2026-04-20 18:13 52.43424 10.63721 26592 ft 480 kts 172°
2026-04-20 18:13 52.40103 10.64294 27072 ft 478 kts 172°
2026-04-20 18:13 52.36811 10.64992 27551 ft 475 kts 168°
2026-04-20 18:14 52.33576 10.66130 28043 ft 472 kts 165°
2026-04-20 18:14 52.30382 10.67326 28535 ft 470 kts 165°
2026-04-20 18:14 52.27244 10.68487 29053 ft 468 kts 166°
2026-04-20 18:14 52.24036 10.69705 29565 ft 466 kts 165°
2026-04-20 18:15 52.20925 10.70894 30078 ft 464 kts 165°
2026-04-20 18:15 52.17797 10.72087 30542 ft 461 kts 165°
2026-04-20 18:15 52.14663 10.73287 30984 ft 459 kts 165°
2026-04-20 18:15 52.11545 10.74487 31437 ft 457 kts 165°
2026-04-20 18:16 52.08452 10.75665 31890 ft 455 kts 166°
2026-04-20 18:16 52.05382 10.76778 32284 ft 455 kts 166°
2026-04-20 18:16 52.02299 10.77896 32753 ft 453 kts 167°
2026-04-20 18:16 51.99233 10.79038 33233 ft 451 kts 166°
2026-04-20 18:17 51.96164 10.80192 33724 ft 448 kts 166°
2026-04-20 18:17 51.93165 10.81323 34215 ft 446 kts 166°
2026-04-20 18:17 51.90139 10.82441 34627 ft 444 kts 167°
2026-04-20 18:17 51.87115 10.83510 34859 ft 447 kts 167°
2026-04-20 18:18 51.80959 10.85682 34926 ft 462 kts 168°
2026-04-20 18:18 51.74529 10.87659 34923 ft 477 kts 169°
2026-04-20 18:19 51.67911 10.89672 34916 ft 486 kts 169°
2026-04-20 18:19 51.61268 10.91689 34915 ft 488 kts 169°
2026-04-20 18:20 51.57971 10.93044 34914 ft 488 kts 158°
2026-04-20 18:20 51.55012 10.95671 34914 ft 487 kts 142°
2026-04-20 18:20 51.52608 10.99482 34906 ft 486 kts 126°
2026-04-20 18:20 51.51011 11.04181 34908 ft 486 kts 111°
2026-04-20 18:21 51.48515 11.14314 34912 ft 488 kts 110°
2026-04-20 18:21 51.46024 11.24439 34900 ft 487 kts 110°
2026-04-20 18:22 51.43951 11.32872 34897 ft 488 kts 109°
2026-04-20 18:22 51.42118 11.39446 34892 ft 489 kts 124°
2026-04-20 18:22 51.39770 11.43402 34889 ft 489 kts 144°
2026-04-20 18:23 51.36750 11.45869 34891 ft 488 kts 164°
2026-04-20 18:23 51.34546 11.46550 34891 ft 487 kts 178°
2026-04-20 18:23 51.30101 11.45980 35125 ft 482 kts 189°
2026-04-20 18:23 51.26753 11.45539 35134 ft 480 kts 182°
2026-04-20 18:24 51.21261 11.46873 35138 ft 486 kts 166°
2026-04-20 18:24 51.13631 11.50375 35132 ft 493 kts 165°
2026-04-20 18:25 51.08130 11.52936 35135 ft 494 kts 165°
2026-04-20 18:25 51.01528 11.56006 35134 ft 494 kts 165°
2026-04-20 18:26 50.94898 11.58919 35138 ft 494 kts 167°
2026-04-20 18:26 50.88265 11.61678 35136 ft 494 kts 167°
2026-04-20 18:27 50.81592 11.64447 35135 ft 494 kts 167°
2026-04-20 18:27 50.74921 11.67212 35128 ft 494 kts 167°
2026-04-20 18:28 50.68297 11.70026 35135 ft 497 kts 167°
2026-04-20 18:28 50.61607 11.72882 35134 ft 497 kts 167°
2026-04-20 18:29 50.54876 11.75504 35119 ft 497 kts 168°
2026-04-20 18:29 50.48162 11.77974 35107 ft 497 kts 168°
2026-04-20 18:30 50.41420 11.80450 35099 ft 497 kts 168°
2026-04-20 18:30 50.34716 11.82908 35093 ft 497 kts 168°
2026-04-20 18:31 50.27988 11.85372 35117 ft 497 kts 168°
2026-04-20 18:31 50.21222 11.87894 35012 ft 498 kts 168°
2026-04-20 18:32 50.17902 11.89207 34830 ft 498 kts 167°
2026-04-20 18:32 50.14563 11.90561 34641 ft 496 kts 168°
2026-04-20 18:32 50.11218 11.91916 34456 ft 495 kts 168°
2026-04-20 18:32 50.07890 11.93266 34272 ft 493 kts 168°
2026-04-20 18:33 50.04565 11.94617 34080 ft 492 kts 168°
2026-04-20 18:33 50.01288 11.95959 33858 ft 492 kts 168°
2026-04-20 18:33 49.97971 11.97347 33636 ft 491 kts 168°
2026-04-20 18:33 49.94670 11.98729 33432 ft 490 kts 167°
2026-04-20 18:34 49.91378 12.00101 33181 ft 488 kts 167°
2026-04-20 18:34 49.88100 12.01463 32971 ft 486 kts 167°
2026-04-20 18:34 49.84841 12.02811 32713 ft 483 kts 167°
2026-04-20 18:34 49.81635 12.04130 32422 ft 481 kts 167°
2026-04-20 18:35 49.78400 12.05454 32155 ft 478 kts 168°
2026-04-20 18:35 49.75194 12.06805 32047 ft 476 kts 168°
2026-04-20 18:35 49.68782 12.09588 32085 ft 479 kts 163°
2026-04-20 18:36 49.65810 12.11877 32084 ft 484 kts 146°
2026-04-20 18:36 49.63314 12.15376 32083 ft 486 kts 129°
2026-04-20 18:36 49.58945 12.23335 32107 ft 486 kts 140°
2026-04-20 18:37 49.53652 12.29757 32080 ft 487 kts 145°
2026-04-20 18:37 49.48226 12.36107 32095 ft 490 kts 144°
2026-04-20 18:38 49.45514 12.39293 31953 ft 491 kts 144°
2026-04-20 18:38 49.42847 12.42428 31593 ft 487 kts 144°
2026-04-20 18:38 49.40161 12.45585 31237 ft 484 kts 144°
2026-04-20 18:38 49.37463 12.48674 30893 ft 479 kts 150°
2026-04-20 18:39 49.34492 12.50826 30549 ft 467 kts 167°
2026-04-20 18:39 49.31338 12.51688 30212 ft 457 kts 179°
2026-04-20 18:39 49.28210 12.52134 29800 ft 455 kts 180°
2026-04-20 18:39 49.25067 12.52669 29414 ft 456 kts 178°
2026-04-20 18:40 49.21921 12.53308 29010 ft 452 kts 180°
2026-04-20 18:40 49.18813 12.53425 28685 ft 442 kts 188°
2026-04-20 18:40 49.15741 12.53230 28519 ft 441 kts 188°
2026-04-20 18:40 49.12664 12.53054 28350 ft 440 kts 188°
2026-04-20 18:41 49.09642 12.52901 28181 ft 439 kts 187°
2026-04-20 18:41 49.06580 12.52760 28019 ft 438 kts 187°
2026-04-20 18:41 49.03516 12.52621 27829 ft 437 kts 188°
2026-04-20 18:41 49.00477 12.52445 27568 ft 434 kts 189°
2026-04-20 18:42 48.97501 12.52225 27290 ft 432 kts 189°
2026-04-20 18:42 48.94499 12.51976 27051 ft 430 kts 189°
2026-04-20 18:42 48.91513 12.51720 26780 ft 428 kts 189°
2026-04-20 18:42 48.88552 12.51473 26520 ft 426 kts 189°
2026-04-20 18:43 48.85596 12.51233 26262 ft 424 kts 189°
2026-04-20 18:43 48.82680 12.51004 25987 ft 422 kts 190°
2026-04-20 18:43 48.79748 12.50784 25734 ft 420 kts 189°
2026-04-20 18:43 48.76839 12.50571 25486 ft 418 kts 189°
2026-04-20 18:44 48.73930 12.50359 25234 ft 416 kts 189°
2026-04-20 18:44 48.71076 12.50146 25031 ft 414 kts 189°
2026-04-20 18:44 48.68201 12.49928 24889 ft 413 kts 189°
2026-04-20 18:44 48.65336 12.49707 24744 ft 411 kts 189°
2026-04-20 18:45 48.62467 12.49484 24599 ft 410 kts 189°
2026-04-20 18:45 48.59617 12.49267 24427 ft 410 kts 190°
2026-04-20 18:45 48.56794 12.49060 24288 ft 410 kts 189°
2026-04-20 18:45 48.54013 12.48463 24119 ft 397 kts 202°
2026-04-20 18:46 48.51368 12.47326 24068 ft 395 kts 204°
2026-04-20 18:46 48.48744 12.46109 23769 ft 390 kts 208°
2026-04-20 18:46 48.46435 12.44162 23399 ft 377 kts 221°
2026-04-20 18:46 48.44257 12.41949 22995 ft 378 kts 217°
2026-04-20 18:47 48.41927 12.40086 22614 ft 380 kts 213°
2026-04-20 18:47 48.39551 12.38350 22200 ft 377 kts 213°
2026-04-20 18:47 48.37258 12.36482 21815 ft 371 kts 217°
2026-04-20 18:47 48.35064 12.34565 21451 ft 369 kts 217°
2026-04-20 18:48 48.32859 12.32619 21087 ft 367 kts 217°
2026-04-20 18:48 48.30623 12.30754 20712 ft 370 kts 210°
2026-04-20 18:48 48.28141 12.29556 20341 ft 374 kts 202°
2026-04-20 18:48 48.25635 12.28481 20089 ft 373 kts 202°
2026-04-20 18:49 48.23163 12.27435 20076 ft 373 kts 202°
2026-04-20 18:49 48.20662 12.26383 20081 ft 373 kts 202°
2026-04-20 18:49 48.18162 12.25332 20082 ft 373 kts 202°
2026-04-20 18:49 48.15663 12.24278 20083 ft 373 kts 202°
2026-04-20 18:50 48.13157 12.23222 20079 ft 373 kts 202°
2026-04-20 18:50 48.10652 12.22165 20081 ft 373 kts 202°
2026-04-20 18:50 48.08151 12.21110 20080 ft 373 kts 202°
2026-04-20 18:50 48.05674 12.20063 20080 ft 373 kts 202°
2026-04-20 18:51 48.03178 12.19010 20083 ft 373 kts 202°
2026-04-20 18:51 48.00670 12.17955 20082 ft 373 kts 202°
2026-04-20 18:51 47.98171 12.16903 20081 ft 372 kts 203°
2026-04-20 18:51 47.95691 12.15862 19827 ft 369 kts 203°
2026-04-20 18:52 47.93248 12.14839 19481 ft 368 kts 202°
2026-04-20 18:52 47.90777 12.13804 19135 ft 366 kts 202°
2026-04-20 18:52 47.88334 12.12779 18793 ft 364 kts 202°
2026-04-20 18:52 47.85890 12.11754 18455 ft 363 kts 201°
2026-04-20 18:53 47.83463 12.10740 18082 ft 361 kts 201°
2026-04-20 18:53 47.81068 12.09743 17697 ft 359 kts 201°
2026-04-20 18:53 47.78658 12.08743 17289 ft 358 kts 201°
2026-04-20 18:53 47.76264 12.07747 16914 ft 356 kts 201°
2026-04-20 18:54 47.73887 12.06755 16514 ft 354 kts 201°
2026-04-20 18:54 47.71512 12.05763 16120 ft 352 kts 201°
2026-04-20 18:54 47.69187 12.04795 15737 ft 349 kts 201°
2026-04-20 18:54 47.66855 12.03825 15356 ft 348 kts 201°
2026-04-20 18:55 47.64516 12.02856 14976 ft 346 kts 201°
2026-04-20 18:55 47.62196 12.01895 14594 ft 344 kts 201°
2026-04-20 18:55 47.59898 12.00942 14209 ft 342 kts 200°
2026-04-20 18:55 47.57639 12.00007 13842 ft 339 kts 200°
2026-04-20 18:56 47.55372 11.99073 13425 ft 335 kts 201°
2026-04-20 18:56 47.53142 11.98153 13020 ft 330 kts 200°
2026-04-20 18:56 47.50931 11.97240 12607 ft 325 kts 201°
2026-04-20 18:56 47.48793 11.96334 12214 ft 313 kts 204°
2026-04-20 18:57 47.46908 11.94967 11834 ft 300 kts 222°
2026-04-20 18:57 47.45507 11.92762 11441 ft 291 kts 236°
2026-04-20 18:57 47.44295 11.90372 11066 ft 288 kts 237°
2026-04-20 18:57 47.43124 11.87987 10688 ft 287 kts 239°
2026-04-20 18:58 47.42117 11.85463 10322 ft 283 kts 244°
2026-04-20 18:58 47.41180 11.82928 10035 ft 277 kts 244°
2026-04-20 18:58 47.40295 11.80515 10015 ft 261 kts 244°
2026-04-20 18:58 47.39460 11.78240 10017 ft 244 kts 244°
2026-04-20 18:59 47.38656 11.76042 10022 ft 241 kts 244°
2026-04-20 18:59 47.37846 11.73912 9742 ft 241 kts 241°
2026-04-20 18:59 47.36889 11.71862 9231 ft 241 kts 236°
2026-04-20 18:59 47.35828 11.69960 8670 ft 239 kts 234°
2026-04-20 19:00 47.34756 11.68077 8003 ft 238 kts 231°
2026-04-20 19:00 47.33641 11.66297 7310 ft 239 kts 227°
2026-04-20 19:00 47.32414 11.64578 6520 ft 246 kts 222°
2026-04-20 19:00 47.31111 11.62949 5734 ft 240 kts 222°
2026-04-20 19:01 47.30041 11.61189 5072 ft 222 kts 237°
2026-04-20 19:01 47.29303 11.59265 4567 ft 212 kts 241°
2026-04-20 19:01 47.28651 11.57388 4292 ft 201 kts 242°
2026-04-20 19:01 47.28014 11.55659 4118 ft 183 kts 240°
2026-04-20 19:02 47.27425 11.54095 4010 ft 166 kts 240°
2026-04-20 19:02 47.26916 11.52649 3975 ft 154 kts 245°
2026-04-20 19:02 47.26454 11.51236 3984 ft 152 kts 244°
2026-04-20 19:02 47.25989 11.49854 3956 ft 152 kts 244°
2026-04-20 19:03 47.25546 11.48438 4007 ft 153 kts 245°
2026-04-20 19:03 47.25115 11.47016 3994 ft 151 kts 246°
2026-04-20 19:03 47.24713 11.45594 3943 ft 149 kts 250°
2026-04-20 19:03 47.24470 11.44130 4069 ft 152 kts 259°
2026-04-20 19:04 47.24241 11.42612 3990 ft 150 kts 258°
2026-04-20 19:04 47.23991 11.41115 3956 ft 151 kts 256°
2026-04-20 19:04 47.23760 11.39613 3977 ft 149 kts 260°
2026-04-20 19:04 47.23580 11.38116 4045 ft 151 kts 262°
2026-04-20 19:05 47.23431 11.36593 4008 ft 149 kts 264°
2026-04-20 19:05 47.23292 11.35092 3921 ft 148 kts 265°
2026-04-20 19:05 47.23212 11.33593 3870 ft 146 kts 272°
2026-04-20 19:05 47.23248 11.32098 3802 ft 146 kts 276°
2026-04-20 19:06 47.23362 11.30634 3586 ft 145 kts 280°
2026-04-20 19:06 47.23572 11.29182 3421 ft 145 kts 286°
2026-04-20 19:06 47.23873 11.27770 3258 ft 143 kts 291°
2026-04-20 19:06 47.24321 11.26490 3115 ft 138 kts 325°
2026-04-20 19:07 47.25237 11.26386 2853 ft 143 kts 28°
2026-04-20 19:07 47.25630 11.27582 2547 ft 139 kts 104°
2026-04-20 19:07 47.25509 11.29017 2653 ft 146 kts 88°
2026-04-20 19:07 47.25595 11.30503 2347 ft 145 kts 75°
2026-04-20 19:08 47.25760 11.31924 2138 ft 141 kts 81°
2026-04-20 19:08 47.26054 11.34592 1905 ft 97 kts 81°
2026-04-20 19:08 47.26100 11.35131 1906 ft 18 kts 80°
2026-04-20 19:09 47.26089 11.35237 1905 ft 12 kts 144°
2026-04-20 19:09 47.26012 11.35270 1914 ft 0 kts 170°
2026-04-20 19:10 47.26003 11.35272 1904 ft 4 kts 170°
2026-04-20 19:10 47.25976 11.35279 1914 ft 8 kts 170°
2026-04-20 19:11 47.25905 11.35254 1904 ft 8 kts 242°
2026-04-20 19:11 47.25892 11.35175 1904 ft 10 kts 261°
2026-04-20 19:11 47.25877 11.35107 1900 ft 10 kts 224°
2026-04-20 19:11 47.25831 11.35109 1905 ft 3 kts 170°
2026-04-20 19:12 47.25827 11.35110 1907 ft 0 kts 170°